Location: Kernascl�den
(48.0062°N, 3.3198°W)
Time: 15:28:38
(UTC+00:00)

H-2A R/B - Pass Details

Date: 21 January 2021
Orbit: 734 x 836 km, 98.2° (Epoch: 01 March)

Event Time Altitude Azimuth Distance (km) Brightness Sun altitude
Rises 19:19:06 0° 178° (S) 3,170 5.2 -23.5°
Reaches altitude 10° 19:21:24 10° 183° (S) 2,261 4.5 -23.9°
Maximum altitude 19:26:16 54° 260° (W) 928 2.7 -24.7°
Drops below altitude 10° 19:31:18 10° 338° (NNW) 2,335 4.7 -25.5°
Sets 19:33:43 0° 343° (NNW) 3,284 5.5 -25.9°
